Home   Weather   Swanage   Past weeks

Flag for United Kingdom Past Weather in Swanage, England, United Kingdom — Yesterday and Last 2 Weeks

Now
30 °F

Chilly.


Feels Like: 30 °F
Forecast: 42 / 55 °F
Wind: No wind

Location: Bournemouth Airport

Current Time: Apr 27, 2017 at 4:24:14 am

Latest Report: Apr 27, 2017 at 3:00 am


Visibility: 13 mi

Pressure: 30.17 "Hg

Humidity: 95%

Dew Point: 29 °F

Location of SwanageLocation

Past Weather in Swanage — Graph

°F

Swanage Temperature Yesterday

Maximum temperature yesterday: 55 °F (at 3:00 pm)
Minimum temperature yesterday: 31 °F (at 3:00 am)
Average temperature yesterday: 41 °F

High & Low Weather Summary for the Past Weeks

 TemperatureHumidityPressure
High62 °F (Apr 22, 5:00 pm)99% (Apr 13, 7:00 am)30.64 "Hg (Apr 13, 7:00 am)
Low31 °F (Apr 25, 6:00 am)33% (Apr 18, 4:00 pm)29.92 "Hg (Apr 24, 8:00 pm)
Average48 °F73%30.25 "Hg
* Reported Apr 12 2:00 am — Apr 27 2:00 am, Swanage, Weather by CustomWeather, © 2017

Note: Actual official high and low records may vary slightly from our data, if they occured in-between our weather recording intervals... More about our weather records

Advertising

Swanage Weather History for the Previous 24 Hours

Scroll right to see more
 ConditionsComfort  
Time TempWeatherWind HumidityBarometerVisibility
2:00 am
Thu, Apr 27
31 °FChilly.2 mph94%30.17 "Hg14 mi
1:00 am31 °FChilly.2 mph90%30.17 "Hg14 mi
12:00 am33 °FChilly.1 mph88%30.16 "Hg14 mi
11:00 pm
Wed, Apr 26
36 °FChilly.2 mph84%30.16 "Hg17 mi
10:00 pm39 °FChilly.6 mph76%30.15 "Hg28 mi
9:00 pm42 °FQuite cool.7 mph72%30.13 "Hg19 mi
8:00 pm44 °FQuite cool.13 mph63%30.12 "Hg19 mi
7:00 pm48 °FCool.9 mph54%30.10 "Hg25 mi
6:00 pm49 °FCool.14 mph50%30.09 "Hg22 mi
5:00 pm50 °FCool.16 mph51%30.08 "Hg25 mi
4:00 pm50 °FCool.6 mph52%30.08 "Hg22 mi
3:00 pm55 °FCool.15 mph40%30.08 "Hg25 mi
1:00 pm51 °FCool.15 mph46%30.09 "Hg22 mi
12:00 pm48 °FCool.16 mph54%30.09 "Hg22 mi
11:00 am44 °FQuite cool.16 mph64%30.09 "Hg19 mi
10:00 am44 °FQuite cool.15 mph68%30.09 "Hg18 mi
9:00 am42 °FQuite cool.15 mph74%30.08 "Hg22 mi
8:00 am39 °FChilly.15 mph81%30.08 "Hg22 mi
7:00 am35 °FChilly.7 mph90%30.06 "Hg15 mi
6:00 am32 °FChilly.6 mph94%30.04 "Hg13 mi
5:00 am32 °FChilly.8 mph92%30.03 "Hg12 mi
4:00 am33 °FChilly.7 mph95%30.03 "Hg12 mi
Weather by CustomWeather, © 2017

See weather overviewHow to use our weather pages